Regional Weather Roundup
Issued by NWS

Home | Current Version | Previous Version | Graphics & Text | Print | Product List | Glossary Off
Versions: 1 2 3 4 5 6 7 8 9 10 11 12 13 14 15 16 17 18 19 20 21 22 23 24 25 26 27 28 29 30 31 32 33 34 35 36 37 38 39 40 41 42 43 44 45 46 47 48 49 50

000
ASUS43 KFSD 280210
RWRSD

WEATHER ROUNDUP FOR SOUTH DAKOTA
NATIONAL WEATHER SERVICE SIOUX FALLS SD
900 PM CDT FRI MAR 27 2015

NOTE: "FAIR" INDICATES FEW OR NO CLOUDS BELOW 12,000 FEET WITH NO
SIGNIFICANT WEATHER AND/OR OBSTRUCTIONS TO VISIBILITY.


SDZ001>005-009-010-012>017-280300-
NORTHWEST AND NORTH CENTRAL SOUTH DAKOTA

CITY           SKY/WX    TMP DP  RH WIND       PRES   REMARKS
BUFFALO          N/A     57  34  41 N15       29.86R
FAITH            N/A     53  33  46 NE12      29.90R
MOBRIDGE       MOCLDY    42  32  67 E9        29.91R
$$

SDZ012>016-024>037-041>051-057-063-072>074-280300-
SOUTHWEST AND SOUTH CENTRAL SOUTH DAKOTA

CITY           SKY/WX    TMP DP  RH WIND       PRES   REMARKS
RAPID CTY ARPT MOCLDY    49  33  54 NW9       29.93R
PIERRE         CLEAR     37  31  78 SE10      29.92R
CUSTER         MOCLDY    52  27  38 NW5       30.02S
ELLSWORTH AFB  MOCLDY    51  35  55 NW8       29.93R
PHILIP         CLEAR     49  31  49 CALM      29.89R
PINE RIDGE     PTCLDY    50  33  52 CALM      29.95R
SPEARFISH      FAIR      55  32  41 NW5       29.98R
WINNER         FAIR      41  31  67 SE13      29.92R
$$

SDZ004>011-016>023-039-040-280300-
NORTHEAST SOUTH DAKOTA

CITY           SKY/WX    TMP DP  RH WIND       PRES   REMARKS
ABERDEEN       CLOUDY    32  27  81 SE7       30.03R WCI  26
WATERTOWN      CLOUDY    30  24  78 SE7       30.04R WCI  23
SISSETON         N/A     29  27  92 SE7       30.08R WCI  22
$$

SDZ017-020-022-023-036>040-048>070-280300-
SOUTHEAST SOUTH DAKOTA

CITY           SKY/WX    TMP DP  RH WIND       PRES   REMARKS
SIOUX FALLS    CLOUDY    33  22  63 S14       30.05S WCI  23
HURON          MOCLDY    31  28  89 SE8       30.01R WCI  23
CHAMBERLAIN    CLOUDY    35  30  83 SE9       29.95R WCI  27
MITCHELL       CLOUDY    34  27  75 S12       30.01F WCI  25
YANKTON        CLOUDY    34  25  69 SE10      30.05R WCI  26
$$

ABBREVIATIONS USED IN REMARKS
   TC - TEMPERATURE IN CELSIUS
  WCI - WIND CHILL INDEX
   HX - HEAT INDEX
  VSB - VISIBILITY




USA.gov is the U.S. government's official web portal to all federal, state and local government web resources and services.